• In Czech Republic
  • List of Countries
  • For 7 days
  • Water Temperature
  • Satellite Maps
  • Weather Map
  • Weather Widgets
  • user-avatar
    Login

    Hourly Weather Dangriga

    Today, 17 August, Friday

    Time Temperature Precipitation Wind Pressure Humidity
    00:00 +27°C° 0.8 mm 4 mps 761 mmHg 95%
    01:00 +26°C° 1.6 mm 3 mps 761 mmHg 95%
    02:00 +26°C° 1.6 mm 3 mps 761 mmHg 95%
    03:00 +26°C° 1.6 mm 3 mps 761 mmHg 95%
    04:00 +26°C° 1.6 mm 3 mps 761 mmHg 95%
    05:00 +26°C° 1.6 mm 3 mps 761 mmHg 95%
    06:00 +26°C° 1.6 mm 3 mps 761 mmHg 95%
    07:00 +27°C° 2.8 mm 3 mps 761 mmHg 94%
    08:00 +28°C° 2.8 mm 4 mps 762 mmHg 94%
    09:00 +28°C° 2.8 mm 4 mps 762 mmHg 93%
    10:00 +29°C° 1.1 mm 4 mps 762 mmHg 85%
    11:00 +32°C° 1.1 mm 4 mps 762 mmHg 77%
    12:00 +33°C° 1.1 mm 4 mps 761 mmHg 69%
    13:00 +33°C° 1.3 mm 5 mps 761 mmHg 68%
    14:00 +33°C° 1.3 mm 5 mps 761 mmHg 68%
    15:00 +32°C° 1.3 mm 5 mps 760 mmHg 67%
    16:00 +30°C° 1.9 mm 5 mps 760 mmHg 74%
    17:00 +29°C° 1.9 mm 5 mps 760 mmHg 81%
    18:00 +28°C° 1.9 mm 5 mps 760 mmHg 88%
    19:00 +27°C° 0.3 mm 5 mps 761 mmHg 90%
    20:00 +27°C° 0.3 mm 4 mps 761 mmHg 92%
    21:00 +27°C° 0.3 mm 4 mps 761 mmHg 95%
    22:00 +27°C° 0 mm 4 mps 761 mmHg 95%
    23:00 +27°C° 0 mm 4 mps 761 mmHg 94%

    Tomorrow, 18 August, Saturday

    Time Temperature Precipitation Wind Pressure Humidity
    00:00 +27°C° 0 mm 4 mps 761 mmHg 94%
    01:00 +27°C° 0.1 mm 4 mps 761 mmHg 95%
    02:00 +27°C° 0.1 mm 4 mps 761 mmHg 96%
    03:00 +27°C° 0.1 mm 4 mps 760 mmHg 97%
    04:00 +27°C° 0.5 mm 4 mps 760 mmHg 97%
    05:00 +27°C° 0.5 mm 4 mps 760 mmHg 97%
    06:00 +27°C° 0.5 mm 4 mps 760 mmHg 98%
    07:00 +28°C° 0.9 mm 4 mps 761 mmHg 94%
    08:00 +29°C° 0.9 mm 4 mps 761 mmHg 89%
    09:00 +30°C° 0.9 mm 4 mps 762 mmHg 85%
    10:00 +32°C° 0.6 mm 4 mps 761 mmHg 81%
    11:00 +33°C° 0.6 mm 4 mps 761 mmHg 77%
    12:00 +34°C° 0.6 mm 3 mps 761 mmHg 73%
    13:00 +34°C° 0.2 mm 4 mps 760 mmHg 69%
    14:00 +34°C° 0.2 mm 4 mps 760 mmHg 65%
    15:00 +35°C° 0.2 mm 4 mps 759 mmHg 61%
    16:00 +33°C° 0.3 mm 4 mps 759 mmHg 69%
    17:00 +32°C° 0.3 mm 4 mps 759 mmHg 77%
    18:00 +29°C° 0.3 mm 4 mps 759 mmHg 85%
    19:00 +29°C° 0.6 mm 4 mps 759 mmHg 88%
    20:00 +28°C° 0.6 mm 4 mps 760 mmHg 91%
    21:00 +27°C° 0.6 mm 4 mps 760 mmHg 94%
    22:00 +27°C° 0.8 mm 4 mps 760 mmHg 94%
    23:00 +27°C° 0.8 mm 4 mps 760 mmHg 95%

    Day after tomorrow, 19 August, Sunday

    Time Temperature Precipitation Wind Pressure Humidity
    00:00 +27°C° 0.8 mm 4 mps 760 mmHg 95%
    01:00 +27°C° 1.4 mm 4 mps 760 mmHg 95%
    02:00 +26°C° 1.4 mm 3 mps 759 mmHg 96%
    03:00 +26°C° 1.4 mm 3 mps 759 mmHg 96%
    04:00 +26°C° 1.3 mm 3 mps 759 mmHg 96%
    05:00 +26°C° 1.3 mm 3 mps 759 mmHg 96%
    06:00 +26°C° 1.3 mm 2 mps 759 mmHg 96%
    07:00 +27°C° 1 mm 3 mps 759 mmHg 91%
    08:00 +29°C° 1 mm 3 mps 760 mmHg 86%
    09:00 +30°C° 1 mm 3 mps 760 mmHg 82%
    10:00 +31°C° 0.6 mm 3 mps 760 mmHg 78%
    11:00 +31°C° 0.6 mm 3 mps 760 mmHg 74%
    12:00 +33°C° 0.6 mm 3 mps 760 mmHg 70%
    13:00 +33°C° 0 mm 4 mps 759 mmHg 68%
    14:00 +34°C° 0 mm 4 mps 758 mmHg 66%
    15:00 +34°C° 0 mm 4 mps 758 mmHg 64%
    16:00 +33°C° 0 mm 4 mps 758 mmHg 71%
    17:00 +30°C° 0 mm 4 mps 758 mmHg 77%
    18:00 +29°C° 0 mm 4 mps 758 mmHg 84%
    19:00 +29°C° 0.1 mm 4 mps 759 mmHg 88%
    20:00 +28°C° 0.1 mm 5 mps 759 mmHg 92%
    21:00 +27°C° 0.1 mm 5 mps 760 mmHg 95%
    22:00 +27°C° 0.7 mm 5 mps 760 mmHg 96%
    23:00 +27°C° 0.7 mm 5 mps 760 mmHg 97%

    20 August, Monday

    Time Temperature Precipitation Wind Pressure Humidity
    00:00 +27°C° 0.7 mm 5 mps 760 mmHg 97%
    01:00 +27°C° 0.7 mm 5 mps 759 mmHg 97%
    02:00 +27°C° 0.7 mm 5 mps 759 mmHg 97%
    03:00 +27°C° 0.7 mm 4 mps 758 mmHg 97%
    04:00 +27°C° 0.7 mm 4 mps 759 mmHg 96%
    05:00 +27°C° 0.7 mm 5 mps 759 mmHg 96%
    06:00 +27°C° 0.7 mm 5 mps 759 mmHg 96%
    07:00 +28°C° 1.1 mm 5 mps 759 mmHg 91%
    08:00 +29°C° 1.1 mm 4 mps 760 mmHg 87%
    09:00 +30°C° 1.1 mm 4 mps 760 mmHg 82%
    10:00 +33°C° 0.2 mm 4 mps 760 mmHg 76%
    11:00 +34°C° 0.2 mm 4 mps 760 mmHg 70%
    12:00 +35°C° 0.2 mm 4 mps 760 mmHg 63%
    13:00 +35°C° 0.1 mm 5 mps 759 mmHg 64%
    14:00 +35°C° 0.1 mm 5 mps 759 mmHg 65%
    15:00 +35°C° 0.1 mm 5 mps 758 mmHg 65%
    16:00 +33°C° 0.9 mm 5 mps 759 mmHg 72%
    17:00 +32°C° 0.9 mm 5 mps 759 mmHg 79%
    18:00 +29°C° 0.9 mm 5 mps 759 mmHg 86%
    19:00 +29°C° 0.5 mm 5 mps 760 mmHg 89%
    20:00 +28°C° 0.5 mm 5 mps 760 mmHg 92%
    21:00 +27°C° 0.5 mm 5 mps 760 mmHg 95%
    22:00 +27°C° 0.1 mm 5 mps 760 mmHg 95%
    23:00 +27°C° 0.1 mm 5 mps 760 mmHg 96%

    21 August, Tuesday

    Time Temperature Precipitation Wind Pressure Humidity
    00:00 +27°C° 0.1 mm 5 mps 760 mmHg 96%
    01:00 +27°C° 0.2 mm 5 mps 760 mmHg 96%
    02:00 +27°C° 0.2 mm 5 mps 759 mmHg 97%
    03:00 +27°C° 0.2 mm 5 mps 759 mmHg 97%
    04:00 +27°C° 0.1 mm 5 mps 759 mmHg 97%
    05:00 +27°C° 0.1 mm 5 mps 760 mmHg 98%
    06:00 +27°C° 0.1 mm 5 mps 760 mmHg 98%
    07:00 +28°C° 0.1 mm 5 mps 760 mmHg 92%
    08:00 +30°C° 0.1 mm 5 mps 761 mmHg 87%
    09:00 +32°C° 0.1 mm 5 mps 761 mmHg 81%
    10:00 +32°C° 1.3 mm 5 mps 761 mmHg 83%
    11:00 +30°C° 1.3 mm 5 mps 760 mmHg 86%
    12:00 +30°C° 1.3 mm 5 mps 760 mmHg 88%
    13:00 +30°C° 1.5 mm 5 mps 760 mmHg 86%
    14:00 +30°C° 1.5 mm 5 mps 759 mmHg 84%
    15:00 +32°C° 1.5 mm 5 mps 759 mmHg 83%
    16:00 +30°C° 1.2 mm 6 mps 759 mmHg 86%
    17:00 +29°C° 1.2 mm 6 mps 760 mmHg 89%
    18:00 +28°C° 1.2 mm 6 mps 760 mmHg 92%
    19:00 +28°C° 2.5 mm 6 mps 760 mmHg 93%
    20:00 +27°C° 2.5 mm 6 mps 761 mmHg 94%
    21:00 +27°C° 2.5 mm 5 mps 761 mmHg 95%
    22:00 +27°C° 1.7 mm 5 mps 761 mmHg 95%
    23:00 +27°C° 1.7 mm 5 mps 761 mmHg 96%

    22 August, Wednesday

    Time Temperature Precipitation Wind Pressure Humidity
    00:00 +27°C° 1.7 mm 4 mps 760 mmHg 96%
    01:00 +27°C° 0.3 mm 4 mps 760 mmHg 97%
    02:00 +27°C° 0.3 mm 4 mps 760 mmHg 97%
    03:00 +27°C° 0.3 mm 3 mps 759 mmHg 98%
    04:00 +27°C° 0.5 mm 3 mps 760 mmHg 98%
    05:00 +27°C° 0.5 mm 3 mps 760 mmHg 98%
    06:00 +27°C° 0.5 mm 3 mps 760 mmHg 98%
    07:00 +28°C° 1.4 mm 3 mps 761 mmHg 94%
    08:00 +29°C° 1.4 mm 3 mps 761 mmHg 90%
    09:00 +30°C° 1.4 mm 3 mps 761 mmHg 86%
    10:00 +31°C° 0.3 mm 3 mps 761 mmHg 77%
    11:00 +34°C° 0.3 mm 3 mps 761 mmHg 69%
    12:00 +35°C° 0.3 mm 3 mps 760 mmHg 60%
    13:00 +35°C° 0.1 mm 3 mps 760 mmHg 61%
    14:00 +35°C° 0.1 mm 4 mps 759 mmHg 61%
    15:00 +35°C° 0.1 mm 4 mps 759 mmHg 61%
    16:00 +34°C° 0.1 mm 4 mps 759 mmHg 68%
    17:00 +32°C° 0.1 mm 4 mps 759 mmHg 74%
    18:00 +30°C° 0.1 mm 3 mps 759 mmHg 81%
    19:00 +29°C° 0.1 mm 3 mps 760 mmHg 86%
    20:00 +28°C° 0.1 mm 3 mps 760 mmHg 90%
    21:00 +28°C° 0.1 mm 3 mps 761 mmHg 94%
    22:00 +28°C° 0.1 mm 3 mps 761 mmHg 95%
    23:00 +27°C° 0.1 mm 3 mps 760 mmHg 96%
    Show more